Change the Weather History Date:

Wednesday, July 10, 2013

  Actual Average Record
Temperature  
Mean Temperature 85 °F -  
Max Temperature 87 °F 81 °F 91 °F (2000)
Min Temperature 73 °F 65 °F 57 °F (2011)
Cooling Degree Days 20    
Growing Degree Days 35 (Base 50)    
Moisture  
Dew Point 73 °F    
Average Humidity 61    
Maximum Humidity 87    
Minimum Humidity 43    
Precipitation  
Precipitation 0.00 in - - ()
Sea Level Pressure  
Sea Level Pressure 29.93 in    
Wind  
Wind Speed 5 mph (SW)    
Max Wind Speed 16 mph    
Max Gust Speed 25 mph    
Averages and records for this station are not official NWS values.
T = Trace of Precipitation, MM = Missing Value Source: NWS Daily Summary

Daily Weather History Graph

Daily Weather History Graph

Search for Another Location

Airport or City:

Trip Planner

Search our weather history database for the weather conditions in past years. The results will help you decide how hot, cold, wet, or windy it might be!

Date:

Astronomy

Jul. 10, 2013 Rise Set
Actual Time 5:37 AM EDT 8:27 PM EDT
Civil Twilight 5:05 AM EDT 8:59 PM EDT
Nautical Twilight 4:24 AM EDT 9:40 PM EDT
Astronomical Twilight 3:38 AM EDT 10:26 PM EDT
Moon 7:56 AM EDT (7/10) 9:36 PM EDT (7/10)
Length of Visible Light 15h 54m
Length of Day
14h 50m
Waxing Crescent, 5% of the Moon is Illuminated
Jul 10
Waxing Crescent
Jul 15
First Quarter
Jul 22
Full
Jul 29
Last Quarter
Aug 6
New

Hourly Weather History & Observations

Time (EDT) Temp. Heat Index Dew Point Humidity Pressure Visibility Wind Dir Wind Speed Gust Speed Precip Events Conditions
12:00 AM 80.1 °F 84.2 °F 73.0 °F 79% 30.03 in - Calm Calm - N/A   Overcast
1:00 AM 82.9 °F 88.8 °F 73.0 °F 72% 30.02 in - SE 3.5 mph - N/A   Overcast
2:00 AM 82.0 °F 85.9 °F 70.0 °F 67% 30.00 in - SSE 3.5 mph - N/A   Partly Cloudy
3:00 AM 81.0 °F 84.9 °F 71.1 °F 72% 29.98 in - Calm Calm - N/A   Clear
4:00 AM 73.9 °F - 70.0 °F 87% 29.97 in - Calm Calm - N/A   Clear
5:00 AM 75.9 °F - 70.0 °F 82% 29.97 in - Calm Calm - N/A   Clear
6:00 AM 79.0 °F - 71.1 °F 77% 29.97 in - Calm Calm - N/A   Partly Cloudy
7:00 AM 82.9 °F 88.8 °F 73.0 °F 72% 29.97 in - SSW 3.5 mph - N/A   Overcast
8:00 AM 89.6 °F 98.2 °F 73.4 °F 59% 29.97 in - SSW 5.8 mph - N/A   Partly Cloudy
8:06 AM 89.1 °F 98.0 °F 73.9 °F 61% 29.96 in - SSW 5.8 mph - N/A   Partly Cloudy
9:00 AM 88.0 °F 97.5 °F 75.0 °F 65% 29.95 in - SW 9.2 mph - N/A   Overcast
9:20 AM 89.6 °F 99.8 °F 75.2 °F 62% 29.96 in - SSW 8.1 mph - N/A   Overcast
10:00 AM 90.0 °F 101.3 °F 75.9 °F 63% 29.95 in - SW 9.2 mph - N/A   Overcast
10:30 AM 89.6 °F 99.8 °F 75.2 °F 62% 29.96 in - WSW 9.2 mph - N/A   Overcast
10:57 AM 93.2 °F 105.0 °F 75.2 °F 56% 29.95 in - SW 10.4 mph - N/A   Mostly Cloudy
11:00 AM 93.9 °F 106.9 °F 75.9 °F 56% 29.94 in - WSW 9.2 mph - N/A   Mostly Cloudy
11:18 AM 93.2 °F 105.0 °F 75.2 °F 56% 29.94 in - SW 8.1 mph - N/A   Mostly Cloudy
11:27 AM 96.8 °F 109.6 °F 75.2 °F 50% 29.94 in - SW 11.5 mph 19.6 mph N/A   Scattered Clouds
12:00 PM 95.0 °F 106.7 °F 75.0 °F 52% 29.93 in - WSW 9.2 mph 18.4 mph N/A   Mostly Cloudy
1:00 PM 97.0 °F 107.7 °F 73.9 °F 47% 29.91 in - WSW 12.7 mph 19.6 mph N/A   Mostly Cloudy
2:00 PM 93.0 °F 100.7 °F 72.0 °F 50% 29.90 in - WSW 13.8 mph - N/A   Partly Cloudy
2:21 PM 91.4 °F 100.1 °F 73.4 °F 55% 29.90 in - SW 15.0 mph 20.7 mph N/A Rain , Thunderstorm Light Thunderstorms and Rain
2:46 PM 89.6 °F 98.2 °F 73.4 °F 59% 29.89 in - SW 9.2 mph - N/A   Mostly Cloudy
3:00 PM 91.9 °F 101.3 °F 73.9 °F 55% 29.89 in - SW 10.4 mph - N/A   Clear
3:27 PM 93.2 °F 100.5 °F 71.6 °F 49% 29.89 in - SW 11.5 mph - N/A   Scattered Clouds
4:00 PM 96.1 °F 102.9 °F 70.0 °F 43% 29.87 in - WSW 16.1 mph 25.3 mph N/A   Clear
5:00 PM 95.0 °F 101.3 °F 70.0 °F 44% 29.85 in - WSW 9.2 mph 19.6 mph N/A   Clear
6:00 PM 95.0 °F 104.5 °F 73.0 °F 49% 29.83 in - SW 9.2 mph - N/A   Mostly Cloudy
7:00 PM 95.0 °F 105.2 °F 73.9 °F 50% 29.85 in - SSW 8.1 mph - N/A   Mostly Cloudy
8:00 PM 91.0 °F 101.6 °F 75.0 °F 59% 29.85 in - SSW 4.6 mph - N/A   Clear
9:00 PM 90.0 °F 101.3 °F 75.9 °F 63% 29.86 in - SSW 4.6 mph - N/A   Clear
10:00 PM 90.0 °F 101.3 °F 75.9 °F 63% 29.88 in - WSW 5.8 mph - N/A   Mostly Cloudy
11:00 PM 88.0 °F 97.5 °F 75.0 °F 65% 29.86 in - SW 4.6 mph - N/A   Clear